GFSMA_925_thetae_204.txt.gz
Theta_e
305 308 308 309 310 310 311 311 311 311 311 311 311 311 310 311 311 311 312 312 312 314 317 317 319 319 320 320 320 320 321 321 321 322 322 323 323 324 325 326 327 328 329
306 307 308 309 310 310 311 311 311 310 309 310 310 310 310 311 312 312 312 312 312 312 314 317 318 319 319 319 320 322 321 319 320 321 320 322 322 322 322 322 321 321 324
307 306 308 309 310 310 310 310 310 309 309 309 310 311 310 312 312 312 312 313 313 313 312 317 318 318 318 319 320 322 321 322 319 317 320 320 321 323 323 323 324 324 324
307 306 308 309 309 310 310 309 309 309 309 309 310 311 311 312 312 312 312 312 313 313 313 313 314 318 320 321 321 321 320 320 321 320 321 321 322 323 323 324 325 324 323
308 307 308 309 309 309 309 309 309 309 309 309 310 311 312 312 311 311 311 312 313 313 313 313 314 314 315 317 318 318 317 317 318 319 320 321 321 321 322 322 322 323 323
308 308 308 309 309 309 308 308 308 309 308 308 309 311 310 310 309 309 309 311 312 313 313 313 315 315 314 313 314 315 315 315 316 316 317 318 318 319 319 320 320 321 322
309 308 308 309 309 309 308 308 308 308 308 308 308 309 310 309 308 308 308 309 310 313 314 314 315 314 312 311 310 311 314 314 314 315 316 316 316 317 318 320 323 323 325
309 309 308 308 309 310 309 308 308 308 308 307 307 305 303 307 308 308 308 307 308 309 314 315 314 313 311 310 310 309 309 312 313 314 315 315 316 316 319 322 323 324 326
308 309 309 308 309 310 310 309 308 307 307 307 307 306 303 303 304 307 307 307 307 307 308 312 315 313 311 310 309 309 307 309 311 312 313 314 314 315 317 321 323 324 324
308 308 309 308 308 309 310 310 308 307 307 307 307 306 306 306 303 303 306 307 306 307 307 311 312 314 311 310 309 308 307 307 310 310 310 313 312 313 315 319 321 322 324
306 307 308 308 307 308 309 310 309 308 307 307 307 306 306 305 306 306 306 304 306 306 306 312 311 312 309 306 306 306 305 304 308 309 309 310 309 310 312 315 317 319 319
304 305 306 307 307 307 307 309 309 309 308 307 306 306 306 305 305 306 306 305 305 306 305 312 310 310 306 306 305 303 301 302 305 308 309 308 307 306 308 311 313 314 315
303 303 304 305 306 307 306 307 309 309 308 308 308 307 307 306 306 305 305 305 304 305 305 306 309 308 307 306 304 302 301 301 303 306 307 306 305 304 305 306 308 310 311
302 302 303 303 304 305 305 306 307 307 307 308 308 307 307 307 306 306 305 305 302 303 304 305 306 307 306 305 303 302 301 301 302 304 304 303 303 303 302 303 304 305 307
300 300 301 301 303 303 304 305 305 305 306 307 307 306 306 306 306 306 306 305 304 303 301 304 305 305 305 303 302 302 302 301 302 303 303 302 302 302 301 302 301 301 304
299 300 300 301 301 302 303 304 304 305 305 306 307 306 306 305 305 305 305 305 305 304 302 303 304 304 303 302 302 303 303 302 301 303 302 302 301 301 301 300 300 300 301
299 299 300 300 301 302 302 303 304 304 304 305 305 305 305 305 304 304 304 304 304 304 302 303 303 303 303 303 303 302 303 302 301 300 301 302 301 300 300 300 299 298 297
298 298 298 299 299 300 301 302 302 303 304 304 304 304 305 304 304 304 303 303 303 303 302 301 302 303 303 303 303 303 302 302 301 301 299 300 302 301 300 299 299 298 297
296 296 297 297 297 297 298 299 300 301 302 302 303 303 303 304 304 304 303 302 302 302 302 301 301 301 301 302 302 302 302 301 300 299 300 299 298 298 300 299 298 298 297
296 296 295 295 296 296 297 297 297 297 297 298 300 301 302 302 302 303 302 302 302 301 301 301 300 301 301 301 301 300 300 299 298 297 298 298 298 297 298 299 298 298 296
296 296 296 296 296 296 296 296 297 297 297 297 297 297 298 299 299 300 300 300 300 300 300 300 299 299 299 300 300 299 298 298 297 297 298 297 297 298 297 298 298 298 297
295 295 295 296 296 296 296 297 297 297 297 297 297 297 297 296 296 296 296 296 296 297 298 298 298 298 298 299 300 299 298 297 294 297 297 297 297 297 297 296 296 298 297
292 293 294 295 296 296 296 296 296 296 296 296 296 296 296 296 296 296 296 296 297 297 297 298 298 298 298 299 300 299 299 297 297 298 297 296 295 295 296 295 294 295 298
291 291 291 290 291 292 293 295 295 296 296 296 295 295 296 296 296 296 296 296 296 296 297 297 297 297 297 298 298 299 298 297 297 297 297 295 295 295 295 295 294 294 296
290 290 290 289 288 288 289 289 291 292 295 296 296 296 295 295 296 296 297 296 296 296 297 297 296 296 296 297 297 297 296 295 296 295 296 295 294 294 294 293 293 293 293
290 289 289 288 288 288 288 288 289 290 290 292 291 291 291 291 293 295 295 295 295 296 296 296 296 297 296 296 296 296 296 296 295 294 296 294 294 294 291 289 289 290 292

GFSMA_925_thetae_207.txt.gz
Theta_e
305 306 308 309 309 310 310 310 310 309 309 309 309 310 310 311 311 312 312 312 312 313 317 318 319 320 321 320 320 321 321 322 323 322 321 321 323 323 323 323 324 326 328
306 305 307 309 309 310 310 310 309 309 309 309 310 310 310 312 312 312 312 313 313 312 316 320 319 318 319 319 320 323 321 321 320 318 317 319 321 322 324 324 324 323 321
307 306 307 308 309 309 309 309 309 309 308 310 310 310 312 311 312 312 312 313 313 313 312 316 318 320 321 322 322 322 321 321 321 318 321 321 321 322 323 324 324 325 324
307 307 307 308 308 308 308 308 308 308 308 309 311 311 312 311 311 311 312 313 313 313 313 314 316 318 319 320 320 319 318 318 319 320 320 321 321 321 321 322 323 323 324
308 307 307 307 308 308 308 308 308 308 308 309 310 311 311 310 310 310 311 312 313 313 313 314 314 314 315 317 317 317 316 316 316 317 318 318 319 319 319 319 321 322 323
308 308 308 308 308 309 308 307 308 308 307 308 309 310 309 309 309 308 309 311 313 313 313 314 314 313 312 311 314 315 315 314 315 316 317 317 317 318 319 321 322 324 324
308 309 308 308 308 309 309 307 307 307 308 307 308 309 309 308 308 308 307 309 310 313 314 314 314 312 311 310 310 310 312 313 314 315 316 315 317 316 318 322 323 324 324
308 308 308 308 308 309 309 308 307 307 308 307 307 306 309 309 308 307 307 307 307 308 312 314 314 311 310 310 309 309 307 311 312 312 313 316 316 316 316 320 322 324 324
307 307 308 308 307 308 309 309 308 306 307 307 306 307 309 309 307 306 306 307 306 307 307 310 314 312 311 310 309 308 307 307 311 311 311 314 313 314 315 319 321 322 322
306 307 308 308 307 308 309 309 309 308 306 307 307 306 306 306 308 309 306 306 306 306 306 311 311 312 311 307 307 306 305 304 308 309 310 313 311 311 313 315 318 318 319
304 305 306 307 307 307 308 309 309 308 308 306 307 307 306 306 306 307 308 306 306 306 306 310 312 310 307 306 307 306 304 301 306 307 310 311 309 308 310 311 314 315 315
303 303 304 305 306 307 306 307 309 309 308 308 307 306 306 306 306 306 307 306 306 305 305 308 310 308 306 305 305 304 302 300 302 306 309 309 307 306 305 308 309 311 312
302 303 303 303 304 305 306 306 307 308 308 308 308 307 307 306 306 306 306 306 306 305 305 305 308 307 306 306 304 303 302 301 301 304 307 306 304 304 304 304 306 306 308
301 301 301 301 302 303 304 304 305 306 306 307 307 307 306 306 306 306 306 306 306 305 304 305 305 306 306 305 302 302 302 302 301 302 303 304 302 302 302 302 303 303 305
300 300 300 300 301 302 303 303 304 305 305 306 306 307 306 306 305 305 305 305 305 306 305 304 305 305 305 303 303 302 302 303 302 300 302 302 301 300 301 301 301 301 302
299 299 300 300 301 301 302 303 303 304 304 305 305 306 306 305 305 304 304 304 304 305 305 304 304 303 304 303 303 303 302 302 302 301 300 302 302 301 300 301 299 299 299
299 299 299 300 300 300 301 302 302 303 304 304 304 304 305 305 305 304 304 303 303 303 304 304 303 303 303 303 302 302 302 302 302 300 300 299 300 301 301 300 299 299 298
297 297 297 297 297 298 298 299 300 301 301 302 303 303 303 303 303 304 303 303 302 302 302 302 302 302 301 302 301 301 300 301 300 300 299 300 299 299 299 300 299 298 297
296 296 296 296 296 296 297 297 297 297 298 298 300 301 301 302 302 303 302 302 302 301 300 299 300 300 300 300 300 300 300 300 299 298 297 298 298 298 298 299 299 298 298
296 296 296 296 296 296 296 296 297 297 297 297 297 297 297 298 299 300 301 301 301 300 300 300 300 299 300 300 300 299 300 300 299 299 297 297 297 297 297 298 299 299 298
295 295 296 296 296 296 297 297 297 297 297 297 296 296 296 296 296 296 298 298 298 298 298 298 298 298 298 299 299 299 298 298 299 299 297 297 297 297 297 297 297 298 298
294 294 295 296 296 296 296 296 296 296 296 296 296 296 296 296 296 296 296 296 296 297 297 297 296 296 297 297 297 298 298 298 299 298 297 298 298 297 296 296 296 296 297
292 292 292 292 293 294 295 296 296 296 296 296 295 295 296 296 297 297 297 296 296 296 296 297 297 297 297 297 297 296 297 296 297 297 297 297 297 297 297 296 296 295 295
291 291 290 289 289 289 289 290 291 292 295 296 296 295 295 295 295 296 296 296 296 296 296 296 296 296 296 296 296 296 297 296 296 296 296 294 296 295 296 296 295 295 294
290 289 289 289 288 288 288 288 288 289 289 291 292 292 291 290 291 294 294 294 293 292 293 295 295 296 296 296 295 295 296 295 295 295 295 294 295 295 295 294 290 293 293
290 289 288 288 288 288 287 288 288 288 288 289 288 288 288 287 290 293 292 292 292 291 291 291 292 292 291 293 294 294 294 294 295 295 295 294 295 294 295 292 291 292 291

GFSMA_925_thetae_213.txt.gz
Theta_e
312 312 313 313 313 313 313 313 313 313 313 314 314 314 314 314 314 315 315 314 312 316 320 321 321 323 323 322 323 323 321 322 322 321 320 322 321 321 323 324 324 324 324
312 313 313 313 313 312 312 313 313 313 313 314 314 314 314 314 314 314 315 316 314 314 321 322 323 325 325 324 323 322 321 321 321 322 321 321 321 320 321 322 322 323 324
312 313 313 313 312 312 312 312 312 312 313 315 315 314 314 314 314 314 315 315 316 315 314 319 319 321 321 322 321 320 319 318 318 319 320 320 321 321 322 322 322 323 323
312 313 313 312 312 312 312 311 312 312 312 314 315 314 314 314 313 314 314 315 315 316 316 314 313 317 318 318 318 318 317 317 317 318 318 318 319 320 321 322 323 324 325
311 312 312 312 312 312 312 311 311 311 312 312 313 314 314 314 313 313 313 314 315 316 317 316 314 311 313 315 315 315 315 315 316 316 316 318 318 318 319 321 323 324 325
311 312 312 312 312 312 312 311 311 311 311 311 312 314 314 314 313 313 313 313 313 316 316 316 315 314 313 311 312 313 313 313 314 314 315 315 316 316 317 319 322 323 324
311 312 312 312 312 312 312 311 311 311 311 310 312 313 314 313 313 312 312 312 312 313 315 316 315 314 313 312 310 308 310 311 312 313 313 315 316 314 316 318 320 322 322
311 311 311 311 311 312 312 312 312 311 311 310 310 311 315 314 313 311 311 311 310 311 311 313 315 314 313 313 311 308 307 307 310 310 311 313 315 312 313 315 317 319 319
310 308 311 311 311 311 312 312 312 311 311 311 310 310 312 313 311 311 311 310 310 309 310 310 313 313 313 311 309 308 306 306 307 308 310 313 314 311 312 312 314 315 315
310 309 308 310 310 311 311 312 311 312 311 311 310 310 310 309 310 311 310 309 309 308 309 309 312 312 311 310 309 307 305 303 305 307 309 312 312 310 310 310 310 312 312
309 309 308 309 310 310 311 311 312 312 311 311 310 310 310 310 309 310 311 310 309 309 308 307 310 311 310 308 307 306 303 301 304 305 307 309 310 307 308 308 308 309 309
308 308 306 308 308 309 310 310 310 311 311 311 310 310 310 310 309 309 310 309 309 308 308 308 310 310 309 308 308 306 304 303 302 305 305 307 308 305 304 306 306 306 306
307 307 306 307 307 307 308 308 309 310 311 311 310 310 310 309 309 308 308 308 308 307 308 307 307 309 309 308 308 305 304 304 303 302 305 305 306 305 304 304 305 304 304
306 305 304 304 305 305 306 307 308 309 309 310 310 309 309 309 309 308 308 306 306 306 307 307 307 307 307 307 307 305 305 304 304 302 302 303 302 304 304 304 304 303 302
304 303 303 304 304 304 305 305 306 307 307 308 308 309 309 309 308 308 307 306 305 306 307 306 306 306 306 306 305 304 304 304 303 303 302 301 300 299 300 301 302 302 302
302 302 303 303 304 304 304 305 306 306 306 307 307 307 308 308 307 307 306 306 305 305 305 305 305 305 305 305 304 304 304 303 303 302 302 301 299 299 299 299 299 300 299
302 302 302 303 303 303 303 304 304 305 305 305 306 306 306 306 306 306 306 305 305 305 305 304 304 304 304 304 304 303 303 303 302 302 302 301 299 298 298 298 299 299 299
301 301 300 300 300 301 301 301 302 302 302 303 303 304 304 304 305 305 305 304 304 303 303 303 302 302 302 302 302 303 302 302 302 302 301 300 299 298 298 297 297 298 298
300 299 299 299 299 299 300 300 300 300 300 300 300 301 301 301 302 302 303 303 302 302 302 301 301 301 301 301 301 301 302 302 301 301 301 301 299 298 297 297 297 297 297
299 298 298 298 299 299 300 300 300 300 299 299 299 299 299 299 299 299 300 300 300 300 300 300 300 300 299 299 299 299 299 300 300 299 301 300 300 299 299 299 299 298 297
298 298 298 298 298 300 300 300 299 299 299 299 298 298 297 296 296 297 298 298 299 299 300 299 298 297 297 297 297 297 297 296 296 299 299 298 298 297 299 299 299 299 298
298 297 298 298 298 299 296 296 298 298 298 298 298 298 298 297 298 298 298 297 297 297 298 298 297 297 297 297 297 296 296 296 297 297 296 296 296 297 298 298 298 298 297
297 297 297 297 297 297 295 295 295 297 298 298 297 297 297 297 296 296 296 296 296 296 296 296 296 296 296 295 295 294 294 295 295 295 295 296 296 296 296 297 297 298 296
296 296 295 294 294 293 291 290 290 294 296 296 296 294 294 293 292 289 292 293 293 293 293 291 292 292 292 292 293 292 292 293 294 294 294 295 295 295 295 295 296 297 295
295 294 293 291 291 290 289 289 289 291 292 292 291 291 290 291 290 288 291 292 292 291 291 291 291 291 290 290 291 290 291 292 292 291 291 293 294 294 294 295 296 293 294
294 293 291 291 290 290 288 288 288 291 291 292 291 290 289 287 287 287 289 291 291 290 289 290 291 290 289 288 289 289 290 290 291 290 292 291 292 292 293 294 294 294 295

GFSMA_925_thetae_219.txt.gz
Theta_e
312 312 312 312 311 311 312 312 312 313 314 314 314 313 314 314 314 315 315 314 316 321 324 325 326 325 324 322 322 320 319 319 319 319 319 321 323 323 323 323 324 324 325
312 312 311 310 311 311 311 311 312 313 314 314 314 313 313 313 314 315 315 315 316 314 318 322 323 322 322 321 320 319 318 317 317 317 319 319 320 320 321 322 323 324 324
311 312 311 310 311 311 310 310 311 312 314 314 314 313 313 313 313 314 314 314 316 316 315 316 317 317 319 318 318 318 316 315 315 316 316 318 318 318 319 321 323 323 324
311 311 311 310 311 311 310 310 310 310 311 313 314 313 313 313 313 313 313 314 316 315 314 314 314 314 315 316 316 316 315 313 313 313 314 316 317 316 317 319 322 322 323
310 311 311 310 311 312 311 310 310 311 309 311 312 313 313 313 312 312 312 312 315 314 314 313 313 312 313 313 313 313 313 313 313 312 312 314 316 314 316 318 320 321 321
309 310 311 310 311 311 311 310 310 311 310 309 312 313 313 312 312 311 311 311 311 313 313 313 312 312 312 312 311 311 312 312 311 311 312 316 315 314 315 315 316 318 318
309 309 311 311 311 311 312 311 310 310 310 308 309 311 313 313 312 311 310 310 310 311 311 313 312 312 312 311 310 308 308 309 310 310 312 316 314 312 314 314 314 315 315
309 309 310 310 310 311 312 311 309 310 310 310 308 308 308 312 312 310 310 310 309 309 310 310 311 311 311 310 309 308 305 306 309 309 311 312 312 309 310 311 311 310 310
310 308 309 309 310 309 311 311 310 309 310 310 309 307 305 307 306 310 310 309 308 308 308 309 311 311 310 309 308 307 305 304 307 309 309 310 311 310 309 310 310 309 309
309 308 307 307 308 309 310 311 310 310 310 310 309 309 309 308 304 305 309 308 308 308 307 307 308 309 309 309 308 307 306 304 307 307 308 309 309 309 308 308 309 309 308
309 309 306 306 307 308 309 311 311 311 311 310 309 309 309 309 308 306 305 306 307 307 307 308 309 308 308 308 307 306 306 305 306 307 307 308 308 307 307 307 308 307 307
309 308 307 305 306 308 309 309 309 310 310 310 310 310 309 308 308 307 304 305 305 306 306 307 309 309 307 307 307 306 305 303 304 305 306 307 306 305 305 306 306 306 306
309 308 306 304 305 306 307 308 309 309 310 309 310 309 309 309 308 308 307 304 303 305 306 306 305 305 305 305 305 304 304 303 303 304 305 305 304 304 303 304 305 305 305
309 308 306 305 305 306 306 306 306 307 309 309 308 309 309 309 308 307 307 305 301 302 304 304 305 304 304 304 304 303 303 303 303 303 303 303 301 301 301 302 303 304 304
309 307 306 304 304 304 304 305 306 307 307 307 308 308 308 308 308 306 305 305 304 302 301 303 303 303 302 302 302 302 302 302 301 302 302 301 301 300 299 300 302 302 302
307 306 305 303 303 303 303 304 304 306 306 306 307 307 307 307 307 305 305 304 304 304 303 303 303 302 300 300 301 301 300 301 301 301 302 301 300 300 299 298 297 299 301
306 304 302 302 303 303 303 304 305 305 305 306 306 306 306 306 306 306 305 304 303 303 303 302 301 300 300 299 299 299 300 300 299 299 300 300 300 299 299 299 299 300 299
304 302 302 302 303 303 303 304 304 304 304 304 305 304 304 304 304 304 304 303 303 302 301 300 300 299 298 297 296 295 294 292 292 298 299 299 299 297 297 298 299 300 299
302 302 302 302 302 302 302 303 302 302 302 302 302 302 302 302 302 302 303 302 302 301 300 300 298 297 295 295 294 294 292 291 290 295 298 296 292 294 295 297 297 298 298
302 301 301 301 300 300 300 300 300 299 299 300 300 300 299 300 300 299 300 300 299 299 299 298 296 295 295 296 294 292 290 288 288 294 295 290 290 291 292 295 296 295 296
301 300 300 299 299 299 299 299 299 299 299 298 298 298 297 297 297 297 298 298 297 297 298 297 296 295 295 294 293 292 290 289 289 293 290 289 289 288 291 292 295 294 295
300 299 299 298 298 299 298 298 299 299 298 297 297 297 297 297 298 297 295 295 294 292 293 294 294 294 293 291 290 290 290 289 289 289 289 289 287 289 290 290 290 288 293
299 298 298 298 298 299 300 299 298 298 298 298 297 297 296 296 296 296 294 294 293 293 292 292 290 290 290 290 289 289 289 289 289 287 288 286 288 289 286 286 290 293 294
298 298 297 297 298 298 297 297 297 297 297 297 297 297 296 295 291 289 290 291 291 291 291 290 289 290 290 290 290 289 289 288 287 286 287 288 288 288 286 286 289 292 292
298 297 297 297 297 297 295 295 296 296 296 296 296 296 295 291 290 288 289 290 290 290 290 288 287 287 288 289 288 288 288 288 288 287 286 289 287 286 287 286 287 292 291
297 297 297 297 297 296 294 292 292 293 295 294 293 291 290 289 289 287 287 288 288 288 288 287 286 286 287 287 286 287 287 288 288 287 286 287 287 286 286 286 286 286 285

GFSMA_925_thetae_222.txt.gz
Theta_e
311 311 311 310 311 311 311 312 313 313 313 313 313 313 313 314 314 314 315 314 317 322 325 326 326 324 323 321 319 318 318 317 317 317 319 320 320 320 321 322 324 324 325
311 311 310 310 310 310 310 311 313 314 313 313 313 313 313 313 314 314 314 315 315 315 319 320 321 321 320 320 319 316 316 315 315 316 316 319 318 318 319 321 323 323 324
311 311 309 310 310 309 310 310 311 313 313 313 313 312 313 313 313 313 314 315 314 314 315 316 316 317 317 317 317 316 314 314 314 314 314 318 316 317 317 321 322 323 323
310 311 309 310 310 309 309 309 310 311 313 313 313 313 312 312 312 312 312 315 314 313 313 313 314 315 315 314 314 314 313 313 313 313 313 317 314 315 316 317 320 321 321
310 310 309 309 311 310 309 309 310 309 310 311 313 313 312 312 312 312 311 313 314 313 313 312 312 312 313 313 313 313 312 312 312 312 313 318 315 314 315 315 317 318 318
309 309 310 309 311 310 309 309 310 310 308 311 312 313 312 311 311 311 311 311 311 313 313 312 312 311 311 310 311 310 309 310 311 312 313 316 313 313 314 313 314 314 315
308 309 310 310 310 310 310 309 310 310 309 309 311 312 312 312 312 310 310 309 310 310 310 312 311 311 310 309 308 308 307 309 310 311 311 312 311 310 311 311 311 311 311
308 309 309 310 310 310 311 310 309 310 309 307 308 308 308 311 311 310 309 309 308 309 308 309 311 310 309 308 308 306 305 307 309 310 310 310 312 310 310 310 311 310 310
309 308 309 309 309 309 310 310 308 308 309 309 308 307 304 307 305 310 309 308 308 307 307 307 310 310 309 308 308 306 306 307 308 309 309 310 309 309 309 309 309 309 309
309 309 308 308 308 308 310 310 309 308 309 309 309 309 308 307 303 305 308 308 307 307 307 307 308 308 308 308 307 306 305 305 307 308 309 309 309 308 308 308 309 308 308
310 309 307 307 307 308 309 310 309 309 309 309 309 308 308 308 307 304 303 306 306 306 306 308 309 308 308 306 307 305 304 304 306 307 308 308 308 307 307 307 307 307 307
310 309 308 306 306 307 308 309 310 310 310 309 309 309 308 307 307 306 303 303 304 305 306 309 307 306 305 306 305 304 303 303 304 306 306 307 305 305 305 305 306 306 306
311 309 308 306 305 306 307 308 308 309 309 309 309 309 309 308 308 307 306 303 302 304 304 304 304 304 304 304 303 303 303 302 303 304 305 305 304 303 303 304 305 305 305
312 309 308 306 304 305 307 307 308 307 308 309 308 309 309 308 308 307 306 304 300 301 303 304 304 302 301 301 302 302 302 301 301 304 304 303 303 302 302 302 303 303 303
311 309 308 306 305 305 306 305 305 306 307 308 307 308 308 308 307 307 306 304 303 300 299 303 303 302 300 300 301 300 300 301 301 301 301 301 301 301 301 301 302 302 302
311 309 308 306 304 304 304 304 305 305 307 306 307 308 308 308 306 305 305 304 304 303 300 303 302 300 300 300 299 299 299 299 299 299 301 300 300 299 298 299 300 301 301
311 309 307 306 303 303 303 303 304 305 306 306 306 307 307 307 306 305 305 304 303 303 302 302 300 300 299 298 296 294 293 291 293 298 300 299 297 294 297 298 299 300 299
311 308 306 305 302 303 303 303 303 305 305 305 306 305 306 306 306 305 304 303 303 302 302 300 299 299 297 295 293 291 289 288 289 297 297 291 291 294 294 297 296 297 297
309 306 305 302 302 302 303 303 304 304 304 304 305 304 304 304 303 304 304 303 302 301 301 300 298 296 295 295 291 289 288 287 289 293 292 289 288 288 290 292 295 295 295
308 305 303 301 302 302 302 302 303 303 302 303 303 302 302 302 302 302 302 301 301 300 299 298 294 294 295 293 290 288 288 287 291 291 286 286 287 288 288 289 289 289 289
306 303 302 302 302 302 301 302 301 300 300 300 300 300 299 299 300 299 299 299 298 298 298 296 294 294 294 291 290 289 288 287 290 289 286 286 287 286 286 286 289 290 290
303 302 301 301 301 300 300 299 299 299 299 298 298 298 297 297 297 297 297 297 297 296 294 293 293 292 291 289 289 289 288 288 287 287 286 286 286 286 285 285 289 291 294
302 301 301 300 299 299 299 299 298 298 298 297 297 296 296 297 297 296 294 294 293 292 291 290 289 289 289 289 289 288 288 288 288 287 286 286 287 286 285 285 287 289 292
301 300 299 299 298 298 298 298 298 298 298 297 297 296 296 296 296 295 293 293 292 292 292 289 288 289 289 289 290 289 288 288 287 286 286 286 286 286 285 285 285 289 289
300 299 298 298 298 298 299 299 298 297 297 297 297 297 296 295 292 289 290 291 290 291 290 289 287 287 287 289 289 287 287 287 288 287 287 287 286 286 286 285 285 286 285
299 298 298 298 297 298 298 298 297 297 297 297 297 296 296 295 290 288 289 289 289 289 289 287 286 286 286 286 286 286 286 287 287 287 286 287 286 286 286 285 286 285 285

GFSMA_925_thetae_225.txt.gz
Theta_e
311 311 310 310 310 311 311 313 313 313 313 313 313 313 314 314 314 314 315 320 321 323 324 325 323 322 321 319 318 316 316 315 315 315 316 319 317 318 320 322 324 325 325
310 310 309 309 310 310 311 313 313 313 312 312 312 313 313 314 313 314 314 313 314 319 320 320 320 319 319 319 317 316 315 314 314 314 315 317 316 317 318 321 323 323 323
310 309 309 309 309 309 310 312 313 313 313 312 312 312 313 313 313 313 314 313 313 313 316 317 317 317 316 316 316 314 313 313 313 314 316 316 314 316 316 318 321 321 320
310 309 309 309 309 309 309 310 313 313 313 312 312 312 312 312 312 312 314 314 313 312 312 313 314 315 314 314 315 313 312 312 312 313 320 316 313 316 316 316 318 318 319
310 310 308 310 310 309 309 309 308 311 312 312 312 312 311 311 311 311 312 314 313 312 312 311 311 311 311 312 312 311 310 311 312 313 315 313 311 312 313 312 313 313 314
310 309 309 310 310 309 308 309 309 308 310 312 312 312 311 311 310 311 310 310 312 312 312 311 311 310 309 308 310 309 309 310 311 311 311 313 311 311 312 313 312 312 312
309 309 309 309 310 309 309 309 309 308 309 310 312 311 311 311 310 310 309 309 310 310 310 311 310 310 309 308 307 307 308 309 310 311 311 311 311 310 310 311 312 311 310
309 309 309 309 309 310 310 308 309 309 307 308 308 309 308 310 310 309 309 308 308 309 308 310 310 309 309 308 308 306 306 308 309 310 310 311 310 310 310 310 310 310 309
309 308 309 309 309 309 310 309 308 309 308 307 308 307 304 307 305 309 308 308 307 307 307 308 310 309 308 308 307 306 304 307 308 309 310 310 310 309 309 309 310 309 309
309 308 309 308 308 308 309 309 308 307 308 308 308 307 306 306 303 306 307 307 307 306 306 309 308 308 307 307 307 304 303 306 307 308 309 309 308 308 308 308 308 308 308
310 309 308 308 308 308 308 309 309 307 308 308 308 308 307 307 305 303 303 305 306 305 306 309 308 307 306 306 305 304 303 305 306 307 308 308 307 306 306 307 307 307 307
310 310 309 307 307 307 307 308 309 308 309 308 308 307 308 307 306 305 301 302 303 304 306 306 306 304 304 304 303 303 303 302 304 306 307 307 305 305 305 306 306 306 306
310 310 309 308 306 306 306 308 309 309 309 308 308 307 308 307 307 306 305 302 301 303 303 303 303 302 302 303 303 302 302 301 303 305 305 305 304 303 304 304 304 304 304
312 311 309 308 306 306 306 307 308 308 308 308 308 308 308 308 307 307 306 303 299 300 302 303 302 301 301 300 301 301 300 301 301 302 303 303 302 302 301 302 303 303 303
313 312 310 308 307 305 305 306 307 307 307 308 308 308 308 308 307 307 306 305 301 299 299 302 302 300 300 300 299 299 299 300 300 301 302 300 299 299 300 301 301 302 302
314 313 310 308 306 304 305 306 306 306 306 307 307 307 307 308 307 306 305 304 303 302 299 301 300 300 299 298 297 296 294 293 296 300 300 297 296 295 298 299 299 300 300
314 313 310 308 307 305 305 305 304 305 305 306 306 307 307 307 306 305 304 304 304 303 301 300 300 299 298 296 293 290 289 289 290 299 295 290 291 294 295 297 297 297 297
314 313 310 308 307 305 303 303 303 304 305 305 306 306 306 306 306 305 304 304 303 303 302 300 299 298 296 294 290 288 288 288 294 297 287 287 288 290 292 294 295 295 293
313 313 310 308 307 305 303 302 303 303 304 305 305 305 305 305 305 305 305 303 303 302 302 301 299 297 294 293 289 288 287 289 292 287 286 286 287 287 286 286 287 288 288
313 311 310 308 306 304 302 302 302 303 304 304 304 305 304 304 304 303 303 303 302 301 300 299 296 293 294 292 289 288 287 287 290 288 286 286 287 286 286 286 289 292 294
312 312 309 307 305 302 302 302 302 303 303 303 303 303 303 302 302 302 302 302 301 300 298 296 293 293 293 289 288 288 287 287 288 288 286 286 286 286 286 285 287 292 293
310 309 307 305 302 302 302 302 302 302 302 302 301 301 300 300 299 300 299 299 299 298 297 295 292 291 290 288 288 287 287 287 286 286 286 286 286 285 285 285 285 289 291
307 306 305 302 302 302 302 301 301 301 300 300 299 299 298 297 297 297 297 297 296 295 293 291 290 289 288 288 288 287 287 287 287 286 286 286 286 285 285 285 285 286 288
305 305 303 302 301 301 301 300 300 299 299 298 298 297 296 296 297 296 296 294 293 292 291 289 288 288 288 288 289 288 287 287 286 286 286 286 286 285 285 285 285 285 286
302 303 303 301 301 300 299 299 299 298 298 298 297 296 296 297 297 296 293 293 293 292 291 289 287 287 287 288 288 286 286 286 286 286 286 286 286 285 285 285 285 285 285
304 302 302 300 300 299 298 299 298 298 298 297 296 296 296 296 295 293 291 291 290 290 290 288 286 286 287 286 286 285 285 286 286 286 286 286 286 285 285 284 284 284 284

GFSMA_925_thetae_228.txt.gz
Theta_e
310 310 310 310 310 311 312 312 312 313 313 313 313 313 313 313 317 320 321 322 323 323 324 323 322 321 319 317 316 315 315 315 315 316 318 315 317 317 320 322 323 323 322
310 309 309 309 310 311 312 312 312 312 312 312 312 313 313 313 314 313 314 317 319 320 320 320 319 318 318 317 316 314 314 314 314 318 318 314 315 318 316 320 321 321 321
310 309 309 309 309 310 312 312 312 312 312 312 312 312 313 312 313 313 312 312 312 314 317 317 316 316 316 316 314 313 313 313 315 320 316 313 315 316 314 315 316 316 317
310 309 309 308 309 309 310 313 312 312 312 311 312 312 312 312 312 314 313 312 312 311 311 314 313 313 314 314 313 312 313 312 313 313 313 312 312 312 314 314 314 314 314
310 309 309 308 309 309 309 311 312 312 312 311 311 311 311 311 311 313 313 312 312 311 311 311 310 310 310 311 311 311 312 313 312 312 313 313 312 312 312 313 312 312 312
310 309 308 309 309 308 308 308 309 311 312 311 311 311 310 310 310 310 310 312 312 312 311 310 310 309 309 310 310 310 310 311 312 312 312 311 311 311 311 311 311 311 311
310 309 308 309 309 308 308 309 307 309 310 311 311 310 310 310 309 309 309 309 309 310 311 310 310 309 308 307 308 308 309 310 311 311 311 312 310 311 311 311 311 311 311
309 309 309 308 309 309 308 308 308 307 309 311 309 309 307 310 309 309 308 307 308 307 308 309 310 309 308 307 306 304 306 309 310 310 311 311 310 310 310 310 311 310 310
309 308 309 309 309 309 308 308 308 308 307 308 308 308 304 306 306 308 307 307 307 307 307 310 309 308 307 306 306 304 303 308 309 309 310 309 309 309 309 309 310 310 309
309 309 308 309 309 308 309 308 307 308 307 306 306 306 305 307 303 305 306 305 305 306 307 308 307 307 306 306 305 304 303 305 307 309 310 310 308 308 308 308 308 308 308
310 309 308 309 308 308 308 309 307 307 307 307 307 306 306 305 305 303 303 304 304 304 308 307 307 307 306 305 304 303 303 304 306 307 309 308 307 306 307 307 308 307 307
310 310 309 308 308 308 307 308 308 307 307 307 307 307 307 306 305 304 300 301 302 303 304 304 305 304 304 304 303 303 302 302 306 306 307 306 305 305 305 306 306 305 305
310 310 309 309 308 307 307 307 308 308 307 307 307 307 307 307 307 306 304 301 300 302 302 302 302 302 302 301 301 301 301 300 302 304 305 304 303 302 303 303 304 304 304
313 311 310 309 308 307 306 306 307 308 308 308 308 307 307 307 307 307 305 302 298 299 302 302 301 301 301 300 300 300 300 300 301 303 302 302 300 300 301 302 302 302 302
313 312 311 309 308 307 306 306 306 307 307 307 307 307 307 307 307 307 306 304 302 298 298 300 301 300 299 299 298 298 298 297 300 300 298 298 296 298 299 299 300 300 300
315 313 311 310 308 307 306 305 306 306 307 307 307 307 307 307 307 307 306 305 303 301 298 300 300 299 299 297 295 293 291 291 299 298 295 291 290 294 296 297 297 297 299
317 315 312 310 308 307 305 304 305 306 306 306 306 307 306 307 307 306 305 304 303 302 299 299 299 299 297 295 291 288 288 288 296 294 289 289 290 294 294 294 295 295 294
315 315 313 311 309 307 305 304 305 305 305 305 306 306 306 306 306 306 304 304 303 303 302 299 298 298 296 294 289 288 287 292 292 286 286 288 287 287 286 287 290 292 290
315 313 313 312 310 307 306 304 304 304 304 304 305 305 306 306 306 305 304 304 303 302 302 301 298 297 294 291 289 287 288 292 287 286 286 287 286 286 286 286 288 293 294
314 313 312 312 310 308 306 305 303 303 303 303 304 305 305 305 305 305 305 304 303 302 301 300 298 294 294 291 288 287 287 289 290 287 286 286 286 286 285 285 288 292 291
314 314 312 310 308 307 306 305 303 302 302 303 304 304 304 304 304 304 304 303 302 301 300 298 294 292 292 289 288 287 287 286 288 287 286 286 286 286 285 285 285 291 291
313 313 309 309 308 307 306 304 302 302 302 303 303 303 304 303 303 302 302 302 302 301 299 296 293 291 291 288 287 287 287 286 286 286 286 286 286 285 285 285 285 286 288
311 313 313 311 308 306 305 303 302 302 302 303 302 302 302 301 301 300 300 300 299 299 298 297 294 290 289 288 287 287 287 286 286 286 286 285 285 285 285 285 285 285 286
309 305 305 306 304 303 303 302 302 302 302 302 301 301 300 299 299 298 298 298 297 296 295 293 290 289 288 287 287 287 286 286 285 285 285 285 285 285 285 285 285 285 284
306 306 309 308 303 302 302 302 301 301 301 300 299 299 298 297 297 297 297 296 294 292 291 289 288 288 287 288 288 286 286 285 285 285 285 285 285 284 284 285 284 284 284
303 302 303 303 305 304 302 301 301 300 299 298 298 297 297 296 296 296 296 294 293 293 291 288 287 287 287 287 286 286 285 285 285 285 285 285 285 284 284 284 284 284 284